When you browse on this site, cookies collect data to enhance your experience and personalize the content and advertising you see.
Visit our Privacy Policy to learn more. By continuing to use the site, you agree to this use of cookies and data.
  • In Hungary
  • List of Countries
  • For 7 days
  • Water Temperature
  • Satellite Maps
  • Weather Map
  • News
  • Weather Widgets
  • user-avatar
    Login

    Hourly Weather St. Moritz

    Today, 25 June, Tuesday

    Time Temperature Precipitation Wind Pressure Humidity
    00:00 +13°C° 0 mm 1 mps 610 mmHg 86%
    01:00 +12°C° 0 mm 1 mps 610 mmHg 87%
    02:00 +12°C° 0 mm 1 mps 610 mmHg 86%
    03:00 +12°C° 0 mm 1 mps 609 mmHg 85%
    04:00 +11°C° 0 mm 1 mps 609 mmHg 83%
    05:00 +14°C° 0 mm 1 mps 610 mmHg 76%
    06:00 +16°C° 0 mm 1 mps 612 mmHg 68%
    07:00 +18°C° 0 mm 0 mps 613 mmHg 60%
    08:00 +21°C° 0 mm 1 mps 613 mmHg 54%
    09:00 +23°C° 0 mm 1 mps 614 mmHg 49%
    10:00 +24°C° 0 mm 1 mps 615 mmHg 43%
    11:00 +25°C° 0 mm 1 mps 615 mmHg 40%
    12:00 +26°C° 0 mm 1 mps 615 mmHg 38%
    13:00 +27°C° 0 mm 2 mps 616 mmHg 36%
    14:00 +27°C° 0.1 mm 2 mps 616 mmHg 36%
    15:00 +27°C° 0.1 mm 3 mps 615 mmHg 36%
    16:00 +27°C° 0.1 mm 3 mps 615 mmHg 37%
    17:00 +25°C° 0.1 mm 2 mps 615 mmHg 46%
    18:00 +24°C° 0.1 mm 2 mps 615 mmHg 55%
    19:00 +23°C° 0.1 mm 1 mps 615 mmHg 64%
    20:00 +21°C° 0 mm 1 mps 614 mmHg 67%
    21:00 +19°C° 0 mm 1 mps 613 mmHg 70%
    22:00 +15°C° 0 mm 1 mps 613 mmHg 73%
    23:00 +15°C° 0 mm 1 mps 613 mmHg 69%

    Tomorrow, 26 June, Wednesday

    Time Temperature Precipitation Wind Pressure Humidity
    00:00 +14°C° 0 mm 1 mps 612 mmHg 65%
    01:00 +14°C° 0 mm 1 mps 612 mmHg 62%
    02:00 +14°C° 0 mm 1 mps 612 mmHg 61%
    03:00 +13°C° 0 mm 1 mps 612 mmHg 60%
    04:00 +12°C° 0 mm 0 mps 612 mmHg 58%
    05:00 +16°C° 0 mm 1 mps 613 mmHg 52%
    06:00 +19°C° 0 mm 1 mps 614 mmHg 46%
    07:00 +22°C° 0 mm 1 mps 616 mmHg 40%
    08:00 +24°C° 0 mm 1 mps 616 mmHg 37%
    09:00 +25°C° 0 mm 1 mps 616 mmHg 33%
    10:00 +26°C° 0 mm 2 mps 617 mmHg 29%
    11:00 +27°C° 0 mm 2 mps 617 mmHg 28%
    12:00 +28°C° 0 mm 2 mps 617 mmHg 27%
    13:00 +28°C° 0 mm 3 mps 617 mmHg 26%
    14:00 +28°C° 0 mm 3 mps 617 mmHg 27%
    15:00 +28°C° 0 mm 3 mps 617 mmHg 28%
    16:00 +28°C° 0 mm 3 mps 617 mmHg 30%
    17:00 +26°C° 0 mm 3 mps 616 mmHg 38%
    18:00 +25°C° 0 mm 2 mps 616 mmHg 47%
    19:00 +24°C° 0 mm 2 mps 615 mmHg 56%
    20:00 +21°C° 0 mm 2 mps 615 mmHg 61%
    21:00 +19°C° 0 mm 1 mps 614 mmHg 65%
    22:00 +16°C° 0 mm 1 mps 613 mmHg 70%
    23:00 +16°C° 0 mm 1 mps 613 mmHg 69%

    Day after tomorrow, 27 June, Thursday

    Time Temperature Precipitation Wind Pressure Humidity
    00:00 +15°C° 0 mm 1 mps 613 mmHg 69%
    01:00 +15°C° 0 mm 1 mps 612 mmHg 69%
    02:00 +15°C° 0 mm 1 mps 612 mmHg 68%
    03:00 +14°C° 0 mm 1 mps 612 mmHg 66%
    04:00 +14°C° 0 mm 1 mps 611 mmHg 64%
    05:00 +16°C° 0 mm 1 mps 612 mmHg 58%
    06:00 +20°C° 0 mm 1 mps 613 mmHg 52%
    07:00 +22°C° 0 mm 1 mps 614 mmHg 45%
    08:00 +23°C° 0 mm 2 mps 614 mmHg 40%
    09:00 +25°C° 0 mm 2 mps 615 mmHg 35%
    10:00 +26°C° 0 mm 2 mps 615 mmHg 31%
    11:00 +26°C° 0 mm 2 mps 615 mmHg 29%
    12:00 +27°C° 0 mm 3 mps 615 mmHg 28%
    13:00 +27°C° 0 mm 3 mps 615 mmHg 27%
    14:00 +27°C° 0 mm 3 mps 615 mmHg 30%
    15:00 +27°C° 0 mm 4 mps 614 mmHg 32%
    16:00 +26°C° 0 mm 4 mps 614 mmHg 35%
    17:00 +25°C° 0.1 mm 3 mps 613 mmHg 41%
    18:00 +24°C° 0.1 mm 3 mps 613 mmHg 48%
    19:00 +21°C° 0.1 mm 2 mps 612 mmHg 54%
    20:00 +20°C° 0 mm 2 mps 612 mmHg 61%
    21:00 +18°C° 0 mm 2 mps 611 mmHg 68%
    22:00 +16°C° 0 mm 2 mps 611 mmHg 74%
    23:00 +15°C° 0 mm 2 mps 610 mmHg 76%

    28 June, Friday

    Time Temperature Precipitation Wind Pressure Humidity
    00:00 +15°C° 0 mm 2 mps 610 mmHg 77%
    01:00 +14°C° 0 mm 2 mps 610 mmHg 78%
    02:00 +14°C° 0 mm 2 mps 609 mmHg 79%
    03:00 +13°C° 0 mm 2 mps 609 mmHg 80%
    04:00 +13°C° 0 mm 2 mps 609 mmHg 81%
    05:00 +15°C° 0 mm 2 mps 609 mmHg 80%
    06:00 +16°C° 0 mm 2 mps 610 mmHg 78%
    07:00 +17°C° 0 mm 2 mps 611 mmHg 77%
    08:00 +19°C° 0 mm 2 mps 611 mmHg 64%
    09:00 +20°C° 0 mm 2 mps 612 mmHg 51%
    10:00 +23°C° 0 mm 2 mps 613 mmHg 39%
    11:00 +24°C° 0 mm 3 mps 613 mmHg 36%
    12:00 +24°C° 0 mm 3 mps 613 mmHg 33%
    13:00 +25°C° 0 mm 3 mps 613 mmHg 30%
    14:00 +25°C° 0 mm 3 mps 612 mmHg 32%
    15:00 +25°C° 0 mm 3 mps 612 mmHg 33%
    16:00 +25°C° 0 mm 3 mps 612 mmHg 34%
    17:00 +22°C° 0 mm 3 mps 612 mmHg 42%
    18:00 +21°C° 0 mm 3 mps 611 mmHg 50%
    19:00 +20°C° 0 mm 2 mps 611 mmHg 57%
    20:00 +18°C° 0 mm 2 mps 610 mmHg 64%
    21:00 +15°C° 0 mm 2 mps 609 mmHg 71%
    22:00 +13°C° 0 mm 2 mps 609 mmHg 78%
    23:00 +13°C° 0 mm 2 mps 608 mmHg 75%

    29 June, Saturday

    Time Temperature Precipitation Wind Pressure Humidity
    00:00 +12°C° 0 mm 1 mps 608 mmHg 72%
    01:00 +12°C° 0 mm 1 mps 608 mmHg 69%
    02:00 +11°C° 0 mm 1 mps 607 mmHg 65%
    03:00 +10°C° 0 mm 1 mps 607 mmHg 61%
    04:00 +9°C° 0 mm 0 mps 606 mmHg 57%
    05:00 +11°C° 0 mm 0 mps 608 mmHg 51%
    06:00 +14°C° 0 mm 0 mps 609 mmHg 44%
    07:00 +16°C° 0 mm 0 mps 610 mmHg 38%
    08:00 +19°C° 0 mm 1 mps 610 mmHg 36%
    09:00 +21°C° 0 mm 1 mps 611 mmHg 34%
    10:00 +22°C° 0 mm 1 mps 611 mmHg 32%
    11:00 +23°C° 0 mm 1 mps 611 mmHg 32%
    12:00 +24°C° 0 mm 1 mps 612 mmHg 32%
    13:00 +25°C° 0 mm 1 mps 612 mmHg 31%
    14:00 +25°C° 0 mm 2 mps 612 mmHg 35%
    15:00 +25°C° 0 mm 2 mps 612 mmHg 39%
    16:00 +24°C° 0 mm 2 mps 611 mmHg 43%
    17:00 +23°C° 0.1 mm 2 mps 611 mmHg 53%
    18:00 +21°C° 0.1 mm 2 mps 611 mmHg 63%
    19:00 +20°C° 0.1 mm 2 mps 610 mmHg 73%
    20:00 +19°C° 0 mm 1 mps 610 mmHg 80%
    21:00 +16°C° 0 mm 1 mps 609 mmHg 87%
    22:00 +13°C° 0 mm 0 mps 609 mmHg 93%
    23:00 +14°C° 0 mm 1 mps 609 mmHg 94%

    30 June, Sunday

    Time Temperature Precipitation Wind Pressure Humidity
    00:00 +13°C° 0 mm 1 mps 608 mmHg 94%
    01:00 +13°C° 0 mm 1 mps 608 mmHg 95%
    02:00 +13°C° 0 mm 1 mps 608 mmHg 95%
    03:00 +13°C° 0 mm 2 mps 608 mmHg 95%
    04:00 +14°C° 0 mm 2 mps 608 mmHg 95%
    05:00 +14°C° 0 mm 2 mps 609 mmHg 92%
    06:00 +15°C° 0 mm 2 mps 609 mmHg 89%
    07:00 +16°C° 0 mm 1 mps 610 mmHg 86%
    08:00 +18°C° 0 mm 1 mps 610 mmHg 75%
    09:00 +20°C° 0 mm 1 mps 611 mmHg 65%
    10:00 +22°C° 0 mm 1 mps 612 mmHg 54%
    11:00 +23°C° 0 mm 1 mps 612 mmHg 50%
    12:00 +24°C° 0 mm 1 mps 612 mmHg 47%
    13:00 +25°C° 0 mm 2 mps 612 mmHg 43%
    14:00 +25°C° 0 mm 2 mps 612 mmHg 43%
    15:00 +25°C° 0 mm 2 mps 612 mmHg 44%
    16:00 +25°C° 0 mm 2 mps 612 mmHg 44%
    17:00 +24°C° 0.2 mm 2 mps 611 mmHg 51%
    18:00 +23°C° 0.2 mm 2 mps 611 mmHg 58%
    19:00 +22°C° 0.2 mm 1 mps 611 mmHg 65%
    20:00 +19°C° 0.1 mm 1 mps 610 mmHg 70%
    21:00 +16°C° 0.1 mm 1 mps 609 mmHg 75%
    22:00 +14°C° 0.1 mm 1 mps 609 mmHg 79%
    23:00 +14°C° 0 mm 1 mps 608 mmHg 79%
    Show more